[Date Prev][Date Next][Thread Prev][Thread Next] - [Date Index][Thread Index][Author Index]

2 Line ISS Keps 11-2



ISS
1 25544U 98067A   05305.99934756  .00015730  00000-0  11017-3 0  6654
2 25544 051.6435 274.6509 0001849 101.5357 328.2717 15.74431885397378
----
Via the sarex mailing list at AMSAT.ORG courtesy of AMSAT-NA.
To unsubscribe, send "unsubscribe sarex" to Majordomo@amsat.org



AMSAT Top AMSAT Home